This is the latest recevied weather packets stored in our database for station/object DM2KB-13. If no packets are shown the sender has not sent any weather packets the latest 10 day(s).
| Time | Temp. | Humidity | Pressure | Rain* | Wind** | Luminosity | Snow |
|---|---|---|---|---|---|---|---|
| 1778073389 | 8.33° C | 99% | 1007.3 hPa | 0.51 mm | - | 86 W/m² | - |
| 1778073088 | 8.89° C | 99% | 1007.3 hPa | 0.51 mm | - | 81 W/m² | - |
| 1778072788 | 8.89° C | 99% | 1007.2 hPa | 0.76 mm | - | 84 W/m² | - |
| 1778072488 | 8.89° C | 99% | 1007.3 hPa | 0.76 mm | - | 88 W/m² | - |
| 1778072187 | 8.89° C | 99% | 1007.2 hPa | 0.76 mm | - | 86 W/m² | - |
| 1778071887 | 8.89° C | 99% | 1007.2 hPa | 0.76 mm | - | 86 W/m² | - |
| 1778071587 | 8.89° C | 99% | 1007.3 hPa | 1.02 mm | - | 90 W/m² | - |
| 1778071287 | 8.89° C | 99% | 1007.2 hPa | 0.76 mm | - | 95 W/m² | - |
| 1778070986 | 8.89° C | 99% | 1007.1 hPa | 1.02 mm | - | 91 W/m² | - |
| 1778070686 | 8.33° C | 99% | 1007.1 hPa | 1.02 mm | - | 109 W/m² | - |
| 1778070386 | 8.33° C | 99% | 1007.1 hPa | 1.02 mm | - | 100 W/m² | - |
| 1778070086 | 8.33° C | 99% | 1007 hPa | 1.27 mm | - | 107 W/m² | - |
| 1778069785 | 8.33° C | 99% | 1007 hPa | 1.52 mm | - | 116 W/m² | - |
| 1778069485 | 8.33° C | 98% | 1007 hPa | 1.78 mm | - | 111 W/m² | - |
| 1778069185 | 8.33° C | 98% | 1006.9 hPa | 1.78 mm | - | 84 W/m² | - |
| 1778068885 | 8.33° C | 99% | 1006.9 hPa | 2.03 mm | - | 86 W/m² | - |
| 1778068584 | 8.33° C | 99% | 1006.8 hPa | 2.29 mm | - | 102 W/m² | - |
| 1778068284 | 8.33° C | 99% | 1006.8 hPa | 2.29 mm | - | 120 W/m² | - |
| 1778067984 | 8.33° C | 99% | 1006.7 hPa | 2.29 mm | - | 102 W/m² | - |
| 1778067683 | 8.33° C | 99% | 1006.7 hPa | 2.29 mm | - | 90 W/m² | - |
| 1778067383 | 8.33° C | 99% | 1006.7 hPa | 2.03 mm | - | 102 W/m² | - |
| 1778067083 | 8.89° C | 99% | 1006.7 hPa | 2.29 mm | - | 109 W/m² | - |
| 1778066783 | 8.89° C | 99% | 1006.8 hPa | 2.03 mm | - | 104 W/m² | - |
| 1778066482 | 8.89° C | 99% | 1006.7 hPa | 2.03 mm | - | 100 W/m² | - |
| 1778066182 | 8.89° C | 99% | 1006.7 hPa | 1.78 mm | - | 77 W/m² | - |
* Rain latest hour (hover to see other rain measurements)
** Current wind speed in m/s (hover to see current wind gust speed)